Flag for Germany Weather past 2 weeks in Landsberg am Lech, Bavaria, Germany

Now
46 °F

Rain. Passing clouds.


Feels Like: 37 °F
Forecast: 41 / 52 °F
Wind: 28 mph from Southwest

Location: Landsberg

Current Time: Mar 30, 2015 at 2:42:44 AM

Latest Report: Mar 30, 2015 at 1:20 AM


Visibility: N/A

Pressure: 29.59 "Hg

Humidity: 82%

Dew point: 41 °F

Location of Landsberg am LechLocation

Historic Weather in Landsberg am Lech — Graph

°F

Landsberg am Lech temperature yesterday

Maximum temperature yesterday: 52 °F (at 12:20 PM)
Minimum temperature yesterday: 45 °F (at 12:20 AM)
Average temperature yesterday: 48 °F

Past Weeks' High & Low Weather Summary

 TemperatureHumidityPressure
High61 °F (Mar 17, 1:20 PM)100% (Mar 15, 7:20 AM)30.24 "Hg (Mar 15, 7:20 AM)
Low28 °F (Mar 20, 3:20 AM)31% (Mar 17, 1:20 PM)29.53 "Hg (Mar 25, 2:20 PM)
Average43 °F73%30.01 "Hg
* Reported Mar 15 12:20 AM — Mar 30 1:20 AM, Landsberg am Lech, Weather by CustomWeather, © 2015

Note: Actual official high and low records may vary slightly from our data, if they occured in-between our weather recording intervals... More about our weather records

Advertising

Landsberg am Lech weather history for previous 24 hours

 ConditionsComfort  
Time TempWeatherWind HumidityBarometerVisibility
1:20 AM
Mon, Mar 30
46 °FRain. Passing clouds.28 mph82%29.59 "HgN/A
12:20 AM46 °FLight rain. Passing clouds.31 mph82%29.62 "HgN/A
11:20 PM
Sun, Mar 29
48 °FLight rain. Passing clouds.29 mph76%29.62 "HgN/A
10:55 PM48 °FLight rain. Partly cloudy.31 mph76%29.62 "HgN/A
10:20 PM48 °FLight rain. Partly cloudy.30 mph76%29.65 "HgN/A
9:20 PM50 °FMostly cloudy.31 mph71%29.65 "HgN/A
8:20 PM50 °FMore clouds than sun.28 mph71%29.68 "HgN/A
7:20 PM48 °FMore clouds than sun.30 mph76%29.68 "HgN/A
6:20 PM48 °FPartly sunny.25 mph76%29.71 "HgN/A
5:20 PM48 °FLight rain. Partly sunny.33 mph76%29.74 "Hg5 mi
4:20 PM46 °FLight rain. Partly sunny.25 mph87%29.77 "Hg4 mi
3:20 PM48 °FLight rain. Partly sunny.25 mph82%29.77 "Hg4 mi
2:20 PM50 °FLight rain. Partly sunny.30 mph71%29.80 "HgN/A
1:20 PM52 °FPartly sunny.30 mph62%29.80 "HgN/A
12:20 PM52 °FBroken clouds.30 mph62%29.83 "HgN/A
11:20 AM50 °FPartly sunny.29 mph67%29.86 "HgN/A
10:20 AM48 °FPartly sunny.25 mph76%29.89 "HgN/A
9:20 AM48 °FBroken clouds.23 mph71%29.89 "HgN/A
8:20 AM46 °FBroken clouds.16 mph82%29.89 "HgN/A
7:20 AM46 °FPartly cloudy.22 mph82%29.92 "HgN/A
6:20 AM46 °FPassing clouds.18 mph82%29.95 "HgN/A
5:20 AM46 °FPartly cloudy.16 mph82%29.95 "HgN/A
4:20 AM45 °FLight rain. Partly cloudy.13 mph87%29.98 "HgN/A
3:20 AM45 °FMostly cloudy.15 mph87%29.98 "HgN/A
Weather by CustomWeather, © 2015

See weather overviewHow to use our weather pages